Theta_e
312 310 305 301 302 303 303 303 302 302 303 302 303 303 303 304 304 305 305 305 306 306 307 308 308 309 310 311 311 312 314 316 321 327 327 325 323 322 323 321 320 323 331 341 346 343 342 343 342 344 344 343 342 342 345 347 347 347 349 342 332 333 335 335 341 339 339 341 344 346 346 347 347 346 347 346 344 344 343 343 343 344 346 348 351 351 350 353
312 311 308 303 301 303 304 303 302 302 302 302 302 303 303 303 304 304 305 305 306 306 307 308 308 309 310 310 311 312 315 320 324 328 326 326 324 322 322 321 320 320 329 341 341 338 338 339 340 342 340 338 339 339 342 344 344 347 349 340 334 338 339 338 340 340 340 341 344 347 345 346 346 345 345 344 345 344 344 346 344 344 347 350 352 351 352 353
311 311 310 306 302 301 303 304 303 302 303 302 302 303 303 303 303 304 304 305 305 306 307 307 308 309 310 311 312 313 318 324 327 326 327 327 323 321 322 321 320 319 327 337 336 333 335 338 340 338 336 335 334 338 339 342 344 345 346 340 338 341 340 340 339 339 340 341 344 345 345 346 345 345 344 343 346 346 345 346 345 345 348 349 350 352 353 352
310 311 310 308 305 301 302 304 304 302 302 302 302 303 303 303 303 304 304 305 305 306 306 307 308 309 310 312 311 315 323 329 324 324 325 323 322 322 322 322 320 321 327 331 331 331 331 335 339 335 335 333 330 335 335 340 343 342 344 341 340 341 340 341 339 339 339 340 344 344 346 347 345 345 343 345 346 344 344 344 344 346 348 349 348 351 352 351
309 310 309 308 305 302 301 304 304 302 302 302 302 303 303 303 303 303 304 305 305 306 307 307 308 309 310 313 313 318 326 325 319 324 323 321 322 323 323 323 320 325 330 328 328 329 328 333 336 333 334 332 329 330 331 337 341 342 345 341 341 342 340 340 339 339 339 341 343 345 346 346 346 345 344 345 345 342 342 343 343 344 346 347 348 350 352 351
309 308 308 308 306 302 301 303 304 302 302 302 302 303 302 303 303 303 304 304 305 306 306 307 308 309 312 314 316 322 326 320 320 325 323 322 322 323 326 324 321 326 330 325 327 327 326 331 333 333 333 331 329 328 329 334 340 342 343 341 341 342 340 339 338 339 340 341 344 345 345 346 347 346 344 344 344 342 341 341 342 345 347 348 349 349 349 349
309 308 307 308 308 305 302 302 303 302 302 302 302 303 302 303 303 303 304 304 306 306 307 308 308 311 312 317 321 325 325 321 323 324 323 322 322 323 325 325 324 327 329 325 326 325 324 328 330 331 330 329 327 327 329 332 338 342 340 341 340 340 339 338 338 339 340 342 344 344 344 348 347 345 345 342 343 343 341 342 344 347 349 348 348 347 347 348
308 308 308 307 308 308 304 301 303 303 302 302 302 302 303 303 303 303 304 305 306 306 307 308 310 313 314 321 328 326 323 323 324 323 322 322 323 323 326 331 330 329 329 324 325 325 323 326 329 329 328 328 327 328 330 331 337 340 340 340 338 338 337 335 337 338 340 343 343 344 346 348 346 344 345 342 344 345 342 345 346 348 348 347 346 346 348 349
307 308 308 308 308 309 307 302 302 303 302 302 302 302 303 302 303 303 304 306 306 307 309 310 313 314 315 322 328 321 323 324 322 323 324 324 324 326 331 337 336 331 328 325 325 325 323 325 328 328 327 327 327 328 329 330 334 338 339 339 338 336 334 334 337 339 341 343 343 346 347 347 345 346 346 343 345 346 344 347 348 348 347 346 346 346 348 348
308 307 308 308 308 309 308 304 301 303 302 302 302 302 303 303 303 303 305 307 307 308 310 312 314 316 318 325 326 321 325 323 323 325 326 326 326 326 328 333 336 333 328 327 326 324 324 324 327 327 327 327 327 328 328 330 332 335 337 336 335 333 334 335 336 340 341 343 345 345 346 346 347 348 346 343 346 347 347 348 348 349 348 347 347 347 350 349
308 308 308 308 307 307 308 305 302 302 302 302 303 303 303 303 303 304 306 307 308 310 312 315 316 318 322 327 324 322 325 324 326 329 328 327 325 325 325 328 333 333 330 328 326 326 324 324 326 326 326 326 326 327 327 329 331 333 333 334 335 334 336 337 338 341 343 346 345 344 347 349 349 347 346 346 347 348 349 350 349 349 350 348 348 348 351 352
308 308 308 308 308 307 308 307 303 302 302 302 303 303 303 303 303 305 307 309 311 313 315 318 317 320 326 326 323 324 325 325 326 329 328 326 325 325 325 326 329 331 330 329 327 327 325 324 326 325 325 325 326 328 328 329 330 331 332 334 337 338 338 338 340 343 345 347 345 345 346 348 351 347 346 348 348 348 349 351 349 350 350 349 349 349 351 353
307 308 307 308 309 308 308 307 304 302 302 302 303 303 303 304 305 307 310 313 316 319 320 320 319 321 327 325 325 327 324 326 326 326 326 325 325 326 326 326 327 329 329 328 328 327 324 325 325 324 325 324 326 328 328 329 329 330 333 335 337 335 336 339 342 343 345 346 347 346 333 336 349 346 347 352 348 349 350 351 350 349 350 350 351 351 352 354
307 307 307 307 308 307 307 307 304 303 302 302 303 302 304 305 306 310 315 318 321 322 320 318 320 324 328 325 325 326 325 326 326 326 326 326 327 326 326 326 327 328 327 327 327 326 325 325 325 325 324 324 328 328 329 331 331 331 332 335 336 326 327 341 343 342 346 344 348 345 327 330 344 345 349 352 348 350 350 351 350 349 352 352 352 353 353 354
307 307 306 306 307 306 306 306 305 304 303 302 303 304 305 305 309 317 322 322 322 320 318 318 322 328 328 326 327 325 326 327 327 327 327 327 328 327 326 327 328 327 325 325 325 325 325 325 324 325 325 325 327 327 330 333 334 334 328 325 330 323 327 345 343 341 347 345 348 343 329 333 342 345 351 351 348 350 350 351 351 350 353 353 353 354 353 353
307 306 306 306 305 304 304 305 304 304 303 302 304 305 304 306 315 322 323 320 319 319 321 325 326 328 326 324 326 325 326 329 329 328 328 328 327 327 326 326 328 327 325 325 325 324 324 324 325 324 325 325 325 327 329 326 327 335 328 318 322 322 325 338 343 343 346 346 347 343 335 338 344 347 351 351 349 350 351 351 352 351 353 354 355 354 352 353
306 306 306 306 304 303 303 303 303 303 302 303 304 304 306 313 321 322 321 320 320 321 324 330 329 327 327 325 324 324 325 328 328 327 328 327 325 326 326 326 327 327 326 325 325 324 323 324 324 324 326 325 325 327 322 316 316 326 329 321 322 325 323 327 339 345 343 346 348 346 342 342 346 350 351 351 349 350 351 351 353 353 353 355 355 353 353 354
306 305 306 305 304 302 302 302 302 303 302 304 304 303 312 320 322 322 323 323 323 324 326 329 329 327 326 327 326 325 326 327 327 326 325 325 325 326 326 325 326 326 326 324 324 323 322 323 324 324 324 323 326 326 318 315 318 320 322 321 321 326 324 325 336 343 344 347 347 346 344 344 349 352 350 350 351 350 351 351 353 355 354 355 356 354 353 355
305 306 306 305 303 301 302 301 302 303 302 305 304 305 316 323 322 323 327 327 328 332 333 331 330 326 321 325 326 325 325 324 324 323 322 324 326 325 326 325 326 325 324 323 322 322 322 323 323 321 321 322 325 326 323 325 329 327 326 325 320 320 323 330 337 341 345 346 345 345 343 345 350 352 353 352 352 352 352 353 354 354 355 355 356 354 354 355
305 305 305 304 302 300 302 301 301 303 305 305 305 309 319 325 327 328 327 326 326 325 322 322 326 324 320 322 321 321 322 322 322 322 322 324 325 326 325 324 325 325 324 323 322 321 322 321 321 320 321 324 325 326 329 331 333 334 332 328 324 321 322 331 338 341 346 342 341 344 344 345 348 350 356 355 353 354 352 353 354 355 355 356 357 355 355 355
305 304 303 302 301 300 301 300 302 306 306 304 307 313 317 316 317 317 317 319 320 320 318 317 319 319 319 320 319 320 319 320 321 322 323 324 325 326 325 324 325 325 324 324 322 322 322 319 319 322 323 324 325 326 328 330 333 334 331 326 324 323 325 333 340 342 346 340 338 345 345 345 348 349 353 356 355 355 352 353 354 355 356 356 358 358 356 355
305 304 302 301 301 300 300 301 303 307 306 307 310 311 311 312 311 311 311 313 315 317 316 317 317 317 318 318 319 319 318 319 320 321 324 324 324 326 325 324 324 325 325 324 322 322 319 318 321 323 323 324 325 326 326 329 331 332 330 324 320 324 328 334 342 345 347 340 337 346 344 343 349 347 348 354 356 355 353 353 354 355 357 357 358 359 358 356
304 302 300 301 300 299 301 302 305 308 307 310 311 310 312 311 308 309 310 312 315 316 316 316 317 317 317 319 320 319 319 320 320 321 323 325 325 326 325 325 324 325 325 324 322 319 315 318 322 323 322 323 324 325 325 327 329 330 329 321 318 326 326 324 334 346 348 343 339 344 343 343 348 346 347 353 354 355 354 353 353 354 357 358 357 358 358 357
302 300 300 300 299 299 300 302 307 310 309 310 310 310 311 309 308 308 310 313 316 317 317 318 318 318 319 321 321 320 320 321 321 323 323 324 325 325 326 326 325 325 326 325 323 319 317 320 322 322 322 323 324 324 325 324 324 327 330 323 321 328 328 326 335 345 345 345 345 344 334 333 342 345 348 352 352 353 354 354 356 356 357 358 357 357 358 357
300 299 300 299 299 300 299 305 311 309 308 311 310 309 309 308 308 308 311 316 317 318 319 319 319 319 320 322 322 322 323 323 322 324 324 324 325 325 326 327 326 325 326 325 324 321 320 322 322 322 322 323 322 323 325 323 320 322 329 330 328 331 333 334 338 338 333 332 342 341 324 323 335 340 346 350 351 354 354 356 359 359 360 359 359 358 357 357
298 299 299 298 299 299 301 310 312 306 308 312 310 309 308 308 307 307 315 317 315 319 321 320 321 321 322 323 322 323 323 324 324 324 325 324 325 325 326 326 326 326 325 326 325 321 321 322 323 321 322 322 322 321 323 324 318 316 325 332 333 334 333 333 333 329 321 322 337 341 326 321 326 331 342 347 350 355 356 358 359 360 361 359 359 357 355 356
298 299 298 298 300 300 306 310 307 306 310 311 308 309 308 307 306 309 317 314 312 320 322 321 323 322 323 324 323 323 322 323 325 324 325 324 324 325 324 326 326 325 327 326 320 319 322 322 322 322 322 321 320 319 323 326 318 316 328 333 332 333 331 332 332 326 323 326 333 336 331 322 319 327 342 345 347 356 359 359 359 359 360 359 358 356 354 355
299 298 298 299 299 301 306 308 307 310 310 308 307 307 307 307 307 312 317 312 314 323 323 323 323 321 323 325 324 324 323 324 324 325 325 323 323 324 323 326 326 324 328 325 316 319 323 321 321 323 321 320 320 321 324 325 322 322 331 332 332 334 333 333 330 324 327 325 320 326 329 323 318 327 345 350 348 354 359 359 359 357 359 358 357 355 354 354
300 298 298 298 298 303 307 306 309 311 308 307 306 306 308 309 311 315 316 314 317 321 321 322 322 321 324 325 324 325 325 325 325 325 325 324 324 324 324 325 326 325 327 325 320 322 324 322 322 322 320 320 321 323 324 324 325 327 330 331 332 333 333 333 330 323 323 321 316 320 324 321 318 322 334 343 343 347 353 353 355 357 358 358 357 355 354 354
300 298 298 298 300 307 309 308 309 307 306 306 305 307 311 313 315 314 313 316 318 320 320 320 321 323 324 325 325 325 324 325 326 325 324 323 323 325 325 325 326 326 327 327 324 324 324 323 323 322 321 322 323 324 324 323 326 327 330 331 330 331 333 332 329 323 319 317 317 319 321 322 319 319 326 337 342 343 344 343 346 354 357 358 357 355 354 354
300 298 297 299 303 307 309 311 310 306 305 305 306 310 313 317 316 312 313 318 317 319 322 321 322 323 324 324 324 325 324 325 325 325 325 324 323 324 325 324 325 326 325 325 324 324 324 323 323 322 321 323 323 324 324 325 326 327 329 327 322 323 326 323 322 322 319 317 319 322 322 321 317 320 327 338 344 341 338 337 338 345 353 358 357 355 354 354
300 298 298 298 301 305 307 308 309 306 305 306 308 310 312 315 314 311 315 315 313 318 322 321 322 323 323 323 323 324 324 324 324 326 326 324 323 324 324 324 324 321 317 318 320 321 323 324 323 323 322 323 322 321 322 324 325 326 325 321 316 316 319 319 317 318 318 317 320 323 322 318 318 325 333 338 340 339 337 337 337 338 346 356 359 357 355 355
300 298 298 298 302 305 306 306 307 307 306 307 309 310 310 312 312 312 314 314 314 319 322 322 322 322 322 322 322 323 322 323 324 325 326 325 324 324 323 325 326 322 318 318 317 315 317 323 324 323 323 323 321 319 316 318 322 323 320 316 315 315 318 319 317 318 318 316 318 323 322 317 318 328 338 338 337 338 338 337 337 337 340 348 357 359 356 355
299 298 298 301 305 307 307 308 308 307 308 310 310 310 309 310 312 313 314 315 317 321 323 322 322 322 322 321 322 323 321 321 324 324 325 325 323 322 322 324 325 325 323 319 317 314 313 317 322 322 322 322 323 321 320 322 322 323 325 322 317 315 317 318 316 316 317 315 316 321 322 317 316 327 339 339 337 338 337 336 337 339 343 347 353 358 357 356
299 300 303 306 308 309 309 310 310 308 310 313 310 309 308 308 312 313 315 317 318 320 320 321 322 320 320 321 322 322 319 319 323 325 325 324 322 322 323 323 325 327 324 317 317 318 313 314 322 324 323 323 323 322 323 325 321 323 328 323 316 319 320 316 315 315 314 314 315 316 320 323 325 333 341 339 339 337 337 337 336 340 348 349 350 354 356 355
302 306 307 310 312 311 310 311 311 310 313 314 309 307 308 310 312 314 317 318 317 319 318 318 319 316 314 317 319 322 321 320 323 324 323 324 324 324 325 324 324 326 325 319 319 319 312 314 323 324 323 324 323 322 324 322 320 323 322 317 321 328 326 315 313 316 315 314 315 316 319 324 326 332 338 338 338 337 337 337 335 339 348 351 351 353 355 355
306 309 309 310 312 313 312 311 312 312 314 314 310 308 309 311 313 315 319 320 318 319 317 313 315 314 311 312 315 320 321 319 322 322 320 322 323 324 326 325 324 325 326 323 321 322 316 313 322 325 322 323 323 323 324 323 324 322 317 319 326 329 328 320 314 315 316 315 315 314 316 318 317 322 333 336 334 334 335 336 336 336 344 350 352 353 355 355
309 310 311 312 312 312 312 312 313 314 315 315 313 312 311 311 312 314 317 320 318 319 318 313 315 317 314 312 314 320 321 317 319 320 319 321 321 323 326 325 325 326 326 325 322 324 320 312 317 325 322 322 325 323 320 322 326 324 322 327 326 319 318 319 315 315 316 316 315 314 315 316 314 318 328 333 334 335 335 335 335 334 341 349 350 351 355 354
309 310 312 314 313 311 311 312 314 315 315 314 313 314 313 310 312 312 313 316 315 316 317 315 316 318 317 316 316 321 321 317 319 320 318 319 321 323 326 326 326 327 326 326 324 325 325 315 313 322 324 322 323 320 315 317 323 324 325 329 327 321 318 318 317 316 315 315 315 314 314 314 318 325 330 334 336 336 335 336 335 333 339 348 351 351 354 355
308 307 309 313 313 310 311 313 315 315 315 315 312 313 313 311 312 312 312 313 313 314 315 315 316 316 317 319 318 321 322 319 321 320 318 321 321 322 326 326 326 327 326 326 326 325 327 319 312 319 323 319 317 318 317 317 320 320 318 319 320 321 322 320 319 317 315 315 315 315 313 313 323 335 335 335 337 336 335 336 336 335 335 340 348 351 354 355
307 308 310 313 313 311 310 312 313 314 315 315 313 312 313 312 312 312 312 312 312 313 313 313 315 315 316 318 318 319 321 320 320 320 319 321 321 321 325 326 326 328 326 327 327 325 325 322 314 314 316 313 315 321 322 321 323 321 318 317 319 320 319 317 317 316 316 315 314 315 312 314 326 337 335 335 336 334 334 334 334 336 335 334 343 351 354 356
307 308 308 310 311 310 310 309 309 311 313 314 313 313 313 313 312 311 312 312 311 312 312 313 313 314 315 316 317 319 319 318 319 319 319 320 322 323 325 325 325 326 326 327 327 327 327 325 317 313 315 317 320 324 323 322 323 323 323 323 324 323 317 312 313 315 315 314 315 314 312 316 331 339 335 334 335 333 333 336 334 334 335 334 339 349 355 359
306 306 306 307 308 310 311 310 310 309 310 312 313 312 313 313 313 312 312 312 312 312 312 312 312 313 314 315 316 317 317 317 317 318 318 320 322 323 324 324 324 325 327 326 326 328 328 325 318 314 319 322 323 323 323 323 323 320 321 324 324 322 321 319 319 319 316 313 314 315 312 317 331 341 339 336 336 333 333 335 335 335 339 339 345 354 358 360
304 305 307 308 309 310 311 312 311 310 311 312 311 312 313 313 312 312 313 313 313 312 311 312 313 313 313 314 316 316 316 315 315 317 317 318 319 321 323 324 324 325 325 327 329 326 324 324 320 315 316 318 319 320 319 320 321 318 319 323 324 325 325 324 322 322 318 314 315 316 312 317 331 341 339 337 336 333 334 334 334 339 344 343 350 361 361 360
304 306 308 310 312 312 311 312 312 313 314 314 314 314 314 313 312 313 314 314 314 313 312 313 313 313 313 314 314 315 315 314 314 317 318 318 319 320 322 323 324 324 325 331 335 328 323 326 323 315 314 316 315 315 315 316 319 320 321 321 323 323 323 321 318 316 315 316 316 315 312 319 332 337 335 335 334 332 334 335 333 338 346 347 355 364 364 363
304 307 308 309 311 312 312 312 311 312 313 314 315 315 314 313 313 313 314 314 313 314 314 315 315 314 314 314 314 315 315 315 315 318 321 321 320 321 324 325 325 326 329 332 333 329 326 328 326 321 317 316 316 318 322 323 318 316 318 319 321 323 323 322 315 312 316 317 315 319 321 319 326 335 336 333 333 333 333 334 333 335 344 352 361 367 364 363
305 307 308 311 313 312 312 312 312 312 313 313 315 315 314 314 314 315 315 314 313 313 315 316 317 316 316 316 316 315 315 317 317 317 320 321 321 322 324 325 324 327 330 330 329 331 329 324 326 327 323 322 323 325 327 326 320 317 318 317 319 322 321 319 313 315 321 316 312 324 331 321 322 334 335 333 335 335 333 333 333 334 336 343 359 366 361 360
305 307 307 309 310 311 311 312 312 312 311 312 313 314 314 314 315 315 315 315 315 314 314 316 316 317 318 318 317 317 317 318 318 318 319 319 320 321 321 321 322 325 327 326 328 334 330 323 326 328 324 325 327 326 326 326 323 323 322 319 320 321 320 317 315 319 323 316 314 326 333 324 326 333 333 334 335 333 333 334 332 334 334 335 355 366 361 358
304 305 305 306 307 308 308 308 308 308 307 309 311 313 314 314 315 314 315 316 317 315 315 316 316 316 317 317 318 320 320 318 318 320 322 321 320 320 319 319 320 322 324 324 329 334 332 328 332 329 324 325 327 327 328 325 323 322 323 323 322 322 321 320 320 322 323 320 321 327 330 329 332 333 332 333 334 332 333 333 331 334 334 335 354 364 360 357
303 303 304 304 304 304 305 305 306 307 307 309 311 312 312 312 313 314 315 316 318 318 316 317 316 316 317 317 317 320 321 321 322 323 324 324 323 322 321 320 320 322 322 323 329 334 331 330 335 332 324 324 328 329 328 326 323 320 320 324 324 322 322 321 321 323 322 321 323 324 324 327 331 333 333 334 334 333 332 332 333 336 334 335 350 360 358 357
303 303 303 302 302 304 304 306 307 308 308 309 309 309 309 310 311 312 313 314 315 317 318 317 317 318 319 321 320 319 320 322 324 325 326 326 326 326 326 325 324 325 325 326 330 335 332 329 332 332 323 321 326 327 326 326 324 319 317 321 322 320 320 320 322 324 322 320 322 320 318 323 329 333 332 332 333 333 333 333 332 334 337 340 351 359 361 360
303 303 302 302 302 304 304 306 306 307 308 307 308 310 310 311 311 311 312 313 313 315 316 316 316 317 319 322 322 321 321 321 322 323 323 324 324 325 326 327 327 327 328 330 331 334 335 330 328 328 323 321 325 326 324 323 319 316 317 321 323 322 322 322 323 326 325 324 322 318 318 325 330 331 330 330 331 330 330 332 334 340 350 357 358 359 359 361
Wind_Speed
21 20 19 18 18 19 18 18 19 19 19 19 19 19 20 19 20 20 20 20 20 20 21 21 21 22 22 21 22 21 22 21 15 10 10 9 6 5 8 10 12 11 14 13 14 13 12 12 9 10 9 7 6 4 7 6 5 4 4 3 0 1 2 3 6 4 2 6 10 12 12 9 11 10 6 6 8 11 12 8 9 6 3 6 12 19 24 23
21 21 20 19 19 20 19 19 19 20 20 20 19 20 20 20 20 20 21 21 21 21 20 21 21 21 22 21 20 19 21 19 14 14 11 6 3 12 12 5 14 15 16 15 15 14 11 10 9 10 8 5 5 5 6 6 6 6 4 2 1 1 2 1 5 6 2 6 10 12 12 9 10 12 9 10 10 12 12 10 10 8 8 11 16 22 24 23
21 22 21 20 20 21 20 19 19 20 20 21 21 21 21 21 21 20 21 22 22 22 21 21 20 21 21 19 17 17 17 15 13 8 4 3 7 15 12 1 14 19 18 15 13 12 10 9 10 9 7 5 5 6 6 6 6 6 4 3 2 1 0 2 5 7 4 5 10 12 12 9 10 12 10 10 11 12 12 10 13 12 12 14 18 22 24 24
22 22 22 21 21 22 22 21 20 21 21 21 22 22 22 22 21 21 21 22 23 22 22 20 19 19 18 16 14 13 13 13 6 6 5 5 12 13 9 2 11 19 17 12 11 11 10 9 10 9 7 7 6 6 7 6 5 4 4 4 2 1 2 2 4 8 7 6 10 12 12 11 11 11 10 10 10 10 11 12 14 14 16 17 19 21 24 24
23 22 23 22 22 22 23 22 22 22 22 22 23 23 23 23 22 22 21 22 23 22 22 20 19 17 16 13 9 9 10 8 2 7 4 13 11 11 7 2 8 16 15 11 10 11 12 11 11 9 7 7 8 8 8 9 6 4 4 7 3 1 3 2 3 8 8 8 11 13 13 11 11 11 11 12 9 6 8 12 14 14 17 19 20 21 22 23
23 23 23 23 22 23 23 23 23 23 23 23 24 24 24 24 23 23 22 22 22 21 21 20 18 15 12 9 4 4 7 5 4 5 12 13 7 9 4 3 7 14 14 11 11 11 12 12 11 10 8 9 10 10 9 10 8 5 5 8 6 4 5 1 4 8 9 10 12 13 12 12 12 11 10 12 6 3 4 12 14 14 18 21 22 21 20 21
24 24 24 24 23 24 24 25 24 24 24 24 25 26 25 25 24 23 23 23 22 20 20 19 17 12 7 5 2 4 7 10 11 10 11 8 3 9 5 5 9 13 14 13 13 12 12 14 13 11 9 9 11 12 10 8 10 8 7 8 7 6 7 5 4 8 11 11 11 11 12 14 13 10 10 12 5 4 4 11 14 15 19 22 21 20 20 20
24 24 24 24 25 24 25 26 25 24 25 25 26 27 27 26 25 25 25 23 21 20 19 18 14 8 3 1 4 7 9 10 8 6 8 7 3 7 6 6 11 13 15 15 15 14 13 15 15 12 11 11 10 11 10 8 10 11 9 7 7 7 7 6 5 8 11 10 10 12 13 14 13 8 10 11 6 4 7 13 14 16 19 20 20 21 20 20
24 25 25 25 26 26 25 26 26 25 25 26 27 27 28 27 27 27 26 23 21 20 18 16 11 5 3 2 6 10 7 5 5 6 7 6 4 3 3 5 11 13 15 16 16 16 13 13 16 14 11 11 11 11 10 9 8 10 12 10 7 6 5 5 6 9 11 9 10 14 13 14 11 7 9 12 9 8 11 15 15 17 18 18 19 20 20 19
24 26 26 25 26 26 26 27 27 26 26 27 27 27 28 28 29 28 26 23 20 18 15 13 7 3 4 4 8 9 4 3 5 5 7 7 6 3 1 3 9 12 14 15 16 18 15 13 15 14 9 9 10 10 10 10 4 4 9 9 7 6 4 5 7 10 11 10 13 14 12 13 11 7 7 11 11 10 13 16 16 17 17 18 18 19 19 19
25 25 26 25 26 27 27 27 27 27 27 27 27 28 28 28 29 28 25 23 19 15 12 10 5 7 6 6 8 8 3 4 4 4 8 9 8 7 6 4 7 11 13 14 17 19 18 16 13 10 7 8 9 11 12 11 6 4 6 6 6 5 3 6 9 12 10 10 14 13 11 12 11 9 7 12 14 12 14 16 17 16 16 17 18 18 16 18
26 25 26 26 26 27 27 28 28 28 28 28 28 28 28 29 28 26 24 20 15 11 9 8 6 8 5 7 11 13 8 8 7 6 10 10 10 11 9 7 8 11 12 13 15 18 20 18 15 12 8 6 9 9 9 12 9 7 8 8 7 5 5 8 10 12 11 10 13 11 9 10 12 11 8 13 15 13 14 15 16 16 15 16 17 16 15 17
27 26 27 27 27 27 27 28 29 29 28 28 29 29 30 28 25 23 20 15 10 7 7 5 7 7 6 7 10 12 12 11 10 10 12 13 13 12 10 9 9 10 11 11 12 15 19 17 15 15 12 8 9 4 2 9 10 9 11 9 6 5 6 10 10 13 12 9 13 11 6 8 12 13 11 14 15 15 14 14 15 15 14 15 16 15 15 17
27 27 28 28 27 27 27 28 30 30 30 29 30 30 28 25 22 19 13 9 6 4 4 6 8 5 6 8 8 9 11 10 10 12 12 11 11 10 9 9 8 9 8 9 9 11 15 15 13 13 12 11 8 2 3 9 9 10 10 7 7 7 6 12 11 14 12 9 15 12 5 4 10 14 15 14 16 16 14 14 15 14 14 14 15 15 15 16
28 28 29 30 28 28 29 29 31 32 31 31 31 28 24 21 17 12 6 5 2 2 5 7 6 5 6 10 9 7 7 5 8 10 6 5 7 8 9 10 10 9 7 7 7 8 12 14 12 10 10 13 10 6 9 9 7 9 9 7 9 7 6 12 12 14 12 10 14 12 6 3 7 13 16 14 16 16 14 14 15 14 15 14 14 15 14 15
29 29 30 30 29 29 31 31 32 32 31 31 29 24 20 16 10 6 3 1 3 7 6 3 6 6 7 5 4 4 4 4 6 8 6 3 4 5 9 11 9 10 9 7 6 7 11 12 11 10 10 12 11 9 10 9 8 9 8 8 10 8 7 9 11 14 12 11 14 13 7 3 5 11 14 15 16 16 14 14 15 15 15 15 14 14 14 14
28 30 30 30 29 30 31 32 33 32 31 29 25 21 16 10 3 1 3 5 4 5 3 4 3 6 7 2 3 6 7 7 6 7 6 4 3 4 10 11 9 10 9 8 7 7 10 11 9 9 10 10 11 11 10 11 10 8 9 9 9 9 9 9 11 13 13 12 14 14 10 4 7 8 10 14 16 16 14 14 15 15 14 14 13 13 14 14
28 29 29 30 31 31 32 34 32 32 32 25 22 20 11 3 1 2 3 4 3 4 5 4 4 5 5 4 3 3 7 8 7 4 6 7 6 7 11 10 8 11 9 8 9 9 10 9 9 9 10 11 12 12 12 12 12 11 11 9 9 9 9 9 10 12 16 14 12 13 12 9 8 8 10 13 14 15 15 13 14 14 15 15 14 14 14 15
28 29 30 30 31 32 33 33 32 34 30 20 19 18 7 2 2 4 6 7 4 4 4 3 8 6 5 4 4 3 5 6 6 8 11 10 7 10 12 9 9 12 9 8 10 12 9 8 10 10 12 13 15 15 15 14 14 14 13 11 11 10 10 11 9 11 16 14 11 12 12 11 10 11 12 13 13 14 14 13 12 13 14 14 14 14 14 15
29 30 31 32 33 34 34 32 33 31 22 16 20 14 5 3 4 4 5 9 9 11 12 7 11 12 13 9 7 7 8 8 10 11 11 10 10 12 12 10 11 11 10 9 11 12 10 10 12 12 14 17 18 19 18 17 16 15 13 12 13 11 10 13 10 10 14 12 11 13 12 12 11 10 11 11 12 13 13 14 13 13 13 14 14 15 15 15
30 32 33 34 35 35 32 33 31 21 14 16 17 9 3 5 5 3 3 9 13 15 17 15 14 17 17 13 9 8 7 8 11 10 9 12 14 12 11 12 12 10 11 12 10 10 11 12 14 16 17 17 18 19 19 20 19 14 13 12 11 12 9 10 10 9 13 12 9 11 13 12 11 9 8 11 13 13 14 15 14 15 14 13 15 16 16 14
31 32 34 36 37 34 33 33 23 11 14 15 10 5 3 6 4 5 5 10 13 13 17 17 16 18 18 16 15 10 8 9 11 11 11 14 15 13 11 14 13 11 13 13 10 10 11 13 16 18 17 16 17 19 20 21 19 14 12 12 10 12 9 7 9 9 9 9 8 10 11 10 11 11 10 12 13 12 14 15 15 15 15 14 15 15 16 15
31 33 35 37 37 33 32 30 14 8 15 11 6 3 2 4 6 6 6 9 12 11 14 16 15 16 15 14 13 11 11 12 11 11 15 16 15 13 12 14 14 13 14 15 13 10 10 13 17 17 16 17 16 17 19 19 16 14 12 12 10 12 11 8 9 11 11 10 8 9 9 8 9 11 11 12 13 12 13 15 15 15 16 16 16 15 15 17
33 36 35 37 37 33 32 24 6 6 13 8 5 1 3 2 7 9 6 7 10 9 11 13 11 12 11 5 8 14 12 10 8 8 16 18 14 13 13 14 15 14 13 17 18 14 12 10 15 19 17 17 16 15 17 15 13 15 16 14 11 13 13 10 10 11 12 11 8 7 7 7 9 11 11 10 12 13 13 15 15 15 15 15 16 16 16 17
35 36 36 37 35 34 30 14 2 10 14 6 1 4 4 3 8 9 6 5 8 5 7 9 7 7 6 4 9 11 7 7 8 8 15 20 17 12 11 11 11 14 16 19 18 15 14 9 11 19 18 16 17 15 15 14 12 14 17 17 16 14 12 13 14 11 9 10 9 8 8 7 10 14 12 9 12 15 14 15 16 15 15 15 16 17 17 17
36 35 36 35 34 36 26 5 4 17 14 1 4 5 2 6 9 9 5 4 7 3 5 6 6 6 8 7 9 8 5 6 7 8 14 19 18 12 10 9 8 13 16 16 12 9 12 11 10 17 18 18 18 15 16 16 12 11 15 18 19 18 13 13 16 13 9 9 9 10 9 7 9 13 12 11 12 15 15 16 17 16 15 16 16 16 17 17
35 33 36 33 33 33 17 5 13 18 8 3 4 2 5 9 9 6 4 4 6 3 4 3 3 5 7 8 10 7 2 4 7 10 13 17 18 13 11 11 8 11 11 10 9 8 13 16 13 15 17 17 16 14 16 17 13 12 14 17 19 19 16 13 14 13 10 10 9 11 10 8 9 9 10 12 13 15 16 17 17 17 18 19 18 18 18 18
34 33 35 33 32 25 11 11 16 11 3 1 2 6 9 9 6 3 5 5 2 2 3 2 3 4 4 7 12 7 2 2 5 8 12 15 18 13 12 14 11 12 12 10 10 9 14 19 16 16 15 14 14 15 16 16 15 13 11 12 15 18 17 14 12 12 12 11 10 12 12 9 9 8 8 12 14 16 17 17 18 18 19 19 19 20 20 19
34 33 33 35 33 20 7 11 12 7 5 6 7 9 10 8 5 4 5 4 2 2 2 3 4 6 6 6 12 10 4 4 3 5 11 13 16 12 10 14 13 13 14 13 12 8 11 17 17 16 14 12 14 16 17 17 15 12 8 8 11 14 15 14 12 10 11 13 12 14 15 10 9 9 9 11 13 14 13 14 16 18 19 20 20 21 20 19
35 33 32 35 29 14 5 11 15 11 8 7 7 9 9 6 5 5 7 4 2 3 4 4 5 8 10 8 9 10 8 6 4 7 11 12 15 13 8 11 13 12 12 14 15 10 8 12 15 14 13 12 12 15 17 17 16 12 8 8 9 10 11 10 9 8 10 13 12 15 17 12 9 10 10 11 11 12 12 12 14 16 18 20 20 20 21 19
36 33 31 32 23 10 6 8 9 7 4 4 9 9 8 5 5 8 7 1 1 5 7 7 8 8 10 8 5 8 9 7 8 10 9 10 13 13 8 9 10 10 11 12 14 14 10 10 12 12 14 14 12 13 14 14 16 13 9 10 9 7 8 7 7 8 10 11 11 16 20 15 11 10 9 10 12 15 15 12 12 13 17 19 19 19 20 19
37 34 30 29 21 12 12 7 3 4 5 7 10 7 6 6 8 10 6 2 2 7 7 7 10 9 10 7 6 7 7 6 9 11 10 11 12 13 12 11 10 10 11 10 11 14 13 11 11 12 15 17 15 12 12 12 15 14 11 11 11 8 8 9 9 9 9 11 12 16 19 16 12 11 13 11 10 15 15 12 13 14 15 18 19 18 18 18
38 34 28 25 18 13 17 14 10 10 9 8 7 5 6 8 10 9 9 6 3 4 4 5 9 10 9 8 8 8 6 6 9 11 13 13 12 14 17 16 14 12 9 10 11 11 11 12 15 14 12 17 18 13 11 12 14 15 13 11 11 10 10 11 11 9 9 11 14 15 14 13 10 10 15 16 13 15 15 13 15 14 12 13 16 18 17 18
37 31 25 22 16 12 13 13 13 13 10 7 6 6 11 13 9 7 11 11 4 3 5 6 6 9 10 9 7 6 6 8 9 11 12 13 11 12 15 17 19 15 9 10 10 10 11 11 15 17 11 15 21 17 13 12 13 15 14 13 12 11 11 11 10 11 11 11 14 15 12 10 10 8 10 14 15 16 15 13 14 12 11 10 12 16 17 18
35 26 21 16 12 9 7 8 8 8 7 7 6 9 13 12 8 7 9 11 8 6 7 6 6 9 9 10 9 7 7 7 9 11 11 12 11 11 13 15 19 17 11 10 8 10 13 10 13 19 14 15 20 19 17 14 12 13 13 14 13 12 11 10 11 12 11 11 12 12 9 8 10 7 6 8 10 12 13 13 13 12 11 10 10 14 16 17
29 22 16 10 7 5 6 6 6 8 8 7 8 12 13 10 8 7 6 7 10 10 9 8 9 10 9 9 10 10 9 7 8 9 9 12 13 13 14 13 17 19 14 10 6 7 11 9 11 18 19 18 19 18 20 16 10 10 13 15 14 14 13 12 12 11 10 12 11 9 8 9 10 9 10 13 13 13 13 13 14 13 12 12 12 13 15 16
23 18 13 9 6 4 6 6 9 10 7 7 11 12 10 10 11 9 5 4 6 8 10 9 8 10 10 9 11 12 12 9 9 8 8 12 12 14 16 14 17 21 17 12 7 6 9 8 10 17 20 20 17 17 21 20 14 9 11 15 14 14 13 12 12 11 10 12 10 10 12 11 10 9 11 16 18 17 16 15 15 13 12 14 13 14 16 17
21 17 13 7 4 2 4 7 10 9 6 8 14 14 11 11 12 11 8 4 4 7 10 9 7 8 9 8 9 12 12 9 10 9 9 9 8 13 16 14 16 21 21 17 10 7 8 8 9 17 18 17 16 16 17 19 21 15 11 13 13 12 12 11 11 11 13 12 10 13 14 12 11 8 8 12 14 15 16 15 16 13 12 14 14 14 17 17
18 13 6 4 5 3 4 8 9 7 7 9 12 12 11 12 13 13 13 10 9 8 9 10 8 7 9 9 7 9 11 9 8 8 8 7 6 10 14 13 15 20 22 19 12 7 8 7 7 14 18 16 14 14 13 15 20 20 14 11 12 11 11 12 11 9 11 12 10 13 14 11 10 10 11 12 11 12 13 14 13 10 10 12 12 13 15 15
11 7 1 7 6 4 5 4 7 6 8 11 11 10 10 12 14 15 16 15 12 9 9 11 11 9 10 11 9 7 9 9 7 6 7 7 6 7 11 13 15 18 21 21 16 9 8 7 7 10 16 16 12 13 16 15 16 16 15 13 13 11 10 12 13 11 11 11 10 11 12 9 8 10 13 15 13 12 12 13 13 10 10 12 12 12 13 14
9 5 2 7 4 1 1 5 7 6 8 10 12 13 12 10 11 13 16 17 14 12 12 13 13 12 10 11 11 9 8 9 9 8 6 8 7 5 7 11 13 16 18 18 16 11 8 7 8 8 11 13 13 15 20 21 17 15 14 14 14 12 10 12 15 14 13 12 11 11 11 9 8 7 9 13 14 14 14 15 14 14 15 12 9 11 13 14
7 5 2 3 4 5 5 7 7 7 9 10 10 12 11 9 10 12 13 15 15 13 12 13 14 13 11 12 12 11 9 9 10 10 8 8 10 6 4 4 10 14 13 13 15 13 9 7 8 9 8 11 14 16 19 23 23 19 15 15 16 14 12 13 13 13 14 15 14 13 12 11 7 4 6 11 13 12 13 12 11 12 14 11 8 9 12 13
5 7 11 11 7 7 6 7 8 8 9 10 12 13 12 10 11 12 13 14 14 12 12 13 14 14 13 13 12 12 11 10 10 12 10 9 10 8 3 4 7 11 11 11 13 14 10 7 8 9 8 9 13 15 17 20 21 19 17 16 17 17 16 16 13 11 13 15 14 13 14 12 6 4 3 8 9 9 10 10 11 11 10 9 9 8 10 11
5 8 10 7 6 8 7 7 8 9 9 11 13 14 13 12 12 13 13 13 12 11 12 13 13 14 14 13 13 13 12 10 10 12 12 10 9 9 7 5 6 9 9 5 6 11 10 8 9 9 8 9 11 12 14 16 15 13 15 17 19 22 23 20 16 12 14 18 19 16 13 12 9 6 5 8 7 7 9 10 13 12 10 10 9 7 8 10
6 6 6 6 8 9 7 7 8 9 10 12 13 13 12 11 12 14 14 14 13 12 12 12 13 14 14 14 15 15 14 12 10 9 10 11 9 9 8 8 9 10 4 7 7 5 10 9 10 11 10 10 11 11 11 12 12 11 15 20 23 26 26 21 14 13 14 17 20 18 13 13 15 14 14 15 13 12 14 12 11 11 11 11 8 6 7 8
6 5 5 4 6 7 7 8 9 9 9 10 10 11 12 11 11 13 15 15 15 14 12 11 12 13 14 16 15 14 16 15 11 8 8 9 9 8 7 6 7 5 3 9 6 4 7 9 12 14 14 12 11 11 11 12 13 14 18 23 24 25 26 21 14 14 15 13 15 15 14 17 20 18 17 17 15 15 17 15 12 10 9 9 7 6 7 7
5 5 5 4 4 5 7 7 6 6 8 9 8 8 11 11 10 10 11 12 14 15 13 11 13 13 13 15 14 13 14 15 14 13 11 10 8 5 5 5 6 2 2 5 7 6 6 10 13 17 19 18 16 14 15 16 16 17 20 23 24 24 26 24 20 19 16 14 15 13 12 19 23 20 18 16 13 13 16 16 15 13 13 12 8 8 8 8
5 5 6 6 6 6 6 6 6 8 11 11 9 10 12 12 11 9 8 9 12 14 12 12 15 16 15 14 13 12 13 14 14 15 14 12 10 9 8 9 10 7 5 8 8 7 8 10 13 16 19 21 21 20 20 18 17 17 18 21 23 24 26 26 25 24 20 17 16 13 14 20 23 22 22 18 14 14 14 14 16 17 17 16 10 9 10 11
5 6 5 6 6 7 9 11 11 12 13 11 9 10 12 12 13 12 8 7 10 13 12 13 15 17 17 17 13 11 12 12 12 13 12 11 11 11 10 10 10 10 11 10 8 8 8 8 12 15 16 19 22 22 23 23 20 20 20 21 22 24 27 26 25 26 25 23 23 19 18 20 20 21 24 22 18 17 15 14 16 16 17 17 12 10 11 11
6 6 5 5 6 8 9 10 9 9 10 9 9 10 11 12 13 12 9 8 9 10 11 14 15 14 15 18 17 15 13 11 10 9 9 9 9 8 8 8 8 10 12 11 8 8 8 8 10 12 12 16 21 23 24 25 23 23 23 23 24 24 26 26 24 24 24 24 26 26 23 19 16 16 19 20 17 17 18 18 16 14 17 19 16 12 11 12
7 8 7 6 7 7 7 7 7 7 7 7 8 9 10 11 9 9 9 10 12 12 10 10 10 9 8 11 15 15 13 10 10 9 6 6 6 5 5 6 6 7 10 10 9 8 8 8 8 8 9 11 16 22 25 25 25 25 25 24 25 24 22 22 21 21 21 21 23 24 22 17 14 15 17 18 17 18 20 19 16 15 18 18 14 10 9 10
7 8 7 6 7 8 7 7 7 7 6 7 8 8 8 8 7 9 8 8 10 10 9 10 11 8 7 7 7 5 5 6 8 8 7 8 8 8 8 9 10 9 7 8 8 8 8 8 7 7 8 8 11 16 20 21 21 20 20 22 24 23 22 22 21 22 22 20 18 18 17 14 14 16 18 19 20 21 21 18 15 14 12 9 8 7 7 7
Wind_Direction
354 354 353 352 352 351 351 353 353 352 352 350 349 348 345 343 340 337 334 332 331 329 328 330 330 329 328 327 327 326 324 325 315 281 258 276 318 342 304 257 239 211 180 172 170 172 175 184 178 177 185 182 212 213 183 208 217 211 244 242 143 153 172 166 150 125 113 142 153 159 167 162 147 160 148 155 166 149 158 161 158 158 125 128 128 143 150 152
353 352 352 352 352 351 350 351 352 351 350 349 347 346 344 342 339 336 332 330 328 327 327 327 328 328 326 327 328 325 326 321 291 269 255 242 356 355 345 245 218 204 181 177 179 181 181 182 173 180 196 195 201 183 177 192 200 220 251 235 191 137 102 181 165 149 176 152 154 166 171 167 153 157 161 173 163 154 168 160 165 167 138 130 135 146 151 156
352 351 351 351 351 351 349 349 351 351 348 347 346 344 342 341 339 336 331 328 326 325 324 324 327 326 324 327 327 329 330 309 280 270 196 187 340 340 348 247 204 198 188 188 190 195 200 190 177 191 212 223 208 186 199 186 188 226 246 235 185 171 102 225 200 176 175 144 158 170 169 168 152 153 169 178 163 171 185 168 174 176 153 146 147 151 154 161
351 349 349 349 349 349 349 348 350 349 347 345 344 342 341 339 337 334 331 327 324 322 321 323 326 323 324 327 327 338 326 291 276 109 111 328 336 335 348 39 195 195 195 200 204 210 217 204 191 209 224 234 225 210 222 186 182 217 217 238 157 117 267 194 220 201 177 161 169 166 167 169 153 157 174 176 171 185 197 181 181 177 161 156 153 156 159 165
350 348 347 347 347 348 347 346 348 348 347 344 342 340 339 338 336 333 330 326 322 320 319 320 323 322 323 324 329 343 314 287 80 101 359 328 336 336 338 82 178 189 196 207 209 210 217 209 198 215 228 236 228 217 227 202 204 230 211 248 247 272 286 136 222 216 182 177 171 165 172 163 154 170 176 178 181 185 189 180 181 174 161 159 158 160 164 169
348 347 346 344 346 346 345 345 346 347 345 343 340 339 337 335 333 330 328 325 321 317 317 317 321 320 318 324 342 331 294 291 332 324 320 321 341 356 353 146 168 183 195 206 203 202 205 202 196 208 217 230 230 222 226 203 203 236 217 233 244 254 268 230 222 211 188 188 175 169 170 154 163 178 177 188 177 80 170 172 171 167 161 161 160 163 168 174
346 346 344 343 342 343 344 344 345 346 345 342 339 338 336 334 331 328 326 323 319 315 314 313 315 315 311 328 330 260 259 275 293 301 305 298 358 17 28 152 173 182 194 201 200 198 194 196 199 207 212 221 231 228 231 205 191 221 228 217 224 233 248 251 227 203 194 193 176 170 165 161 177 175 175 193 157 75 168 162 160 159 160 163 162 167 173 176
345 344 343 342 340 340 341 342 344 345 344 341 339 337 334 332 330 327 324 320 317 313 310 308 310 305 281 294 285 268 265 273 285 297 285 268 309 8 38 143 176 186 196 202 201 198 193 199 202 205 214 219 229 227 226 217 196 211 231 230 228 233 250 252 225 199 193 191 176 171 167 169 181 166 173 186 147 123 159 151 155 158 160 167 168 171 174 178
344 343 342 341 340 338 337 341 343 344 344 340 338 335 333 331 328 325 321 318 315 310 305 302 298 276 200 199 271 281 285 285 294 291 265 250 275 351 56 157 181 189 202 207 205 203 201 204 204 205 218 225 231 232 221 221 210 204 219 233 244 255 272 250 214 193 187 184 175 172 171 173 174 159 174 178 147 136 152 151 158 160 165 171 173 175 175 180
343 343 342 339 338 337 335 338 341 343 342 338 336 333 331 330 326 323 319 316 313 308 300 291 281 186 180 226 260 275 294 302 297 278 246 243 254 252 285 208 188 198 209 211 209 210 210 209 208 210 232 244 236 237 225 221 230 205 217 235 258 281 286 230 197 181 181 175 175 177 174 168 165 174 184 168 152 147 154 158 161 163 169 174 176 177 176 181
343 342 341 339 337 337 335 336 340 342 340 337 334 332 331 329 325 322 318 315 312 304 291 277 234 169 201 236 253 268 288 291 277 243 246 249 246 257 281 250 204 211 213 214 214 213 215 214 211 210 228 244 235 236 229 225 239 238 234 240 242 254 226 200 183 172 171 172 182 180 167 162 168 199 196 156 158 161 159 162 166 169 170 175 179 178 178 184
342 341 340 339 337 337 336 335 339 340 338 336 333 332 330 327 324 321 318 315 309 297 276 259 189 166 215 239 243 255 268 279 270 242 245 248 250 263 273 257 228 223 220 220 216 213 216 213 211 215 211 222 231 233 226 220 232 238 239 242 223 221 200 185 174 171 174 176 180 169 160 176 187 202 182 151 162 167 166 166 169 173 172 174 180 179 182 187
342 341 339 338 336 336 335 335 337 340 338 335 333 332 329 326 324 321 317 312 308 290 260 224 158 166 232 252 247 253 263 268 261 249 247 249 255 258 255 247 226 221 225 226 219 210 212 210 210 221 222 228 231 227 208 211 225 232 232 240 227 224 207 180 171 177 182 174 171 170 184 198 194 195 168 153 166 170 172 174 173 176 174 175 180 182 185 188
341 340 339 337 336 336 335 334 337 339 337 335 333 330 327 325 323 319 315 310 303 270 224 151 142 178 230 260 264 261 267 267 252 246 248 244 242 240 228 218 208 209 210 214 216 201 206 210 213 227 231 237 242 229 211 208 215 226 225 229 230 235 187 166 173 181 179 163 173 192 228 198 178 179 168 161 170 175 180 180 179 180 176 179 180 184 188 187
340 340 339 337 337 337 336 335 337 338 336 335 333 331 329 325 324 322 318 315 294 151 119 122 152 203 251 269 259 254 267 256 230 222 218 209 212 213 198 192 194 194 184 188 199 192 199 206 211 227 222 224 243 236 218 212 209 217 218 213 219 228 164 159 178 187 176 158 180 203 231 210 166 165 168 170 173 179 189 184 183 185 181 183 182 184 189 186
340 339 338 338 338 338 337 337 339 337 336 336 335 333 329 323 321 321 332 56 128 123 118 153 188 218 277 292 186 203 229 199 194 186 178 188 213 208 179 177 184 187 185 177 180 189 194 199 208 225 218 211 223 226 217 215 213 208 216 222 209 200 180 170 182 192 182 161 182 203 223 222 147 156 170 175 178 183 194 191 187 189 184 185 185 186 187 185
340 338 338 338 339 339 338 339 339 337 336 338 338 336 330 322 316 25 69 103 123 143 187 254 214 223 261 269 195 225 207 181 162 157 185 212 246 224 172 172 180 180 185 180 182 188 186 195 205 215 223 216 212 216 218 214 211 201 209 230 219 202 201 179 171 190 189 174 186 200 220 219 118 145 183 181 183 188 196 198 191 190 188 185 188 188 187 186
339 338 338 338 339 340 338 339 339 336 336 339 342 338 331 326 126 104 118 130 129 177 219 266 234 238 237 198 219 199 160 167 169 182 247 246 243 213 181 181 178 169 179 185 189 189 182 193 203 205 212 213 209 210 217 213 209 206 203 218 223 217 218 193 167 180 190 191 195 197 216 215 141 150 197 188 188 196 200 202 196 192 190 186 188 192 189 189
339 338 338 337 339 340 338 339 339 336 334 341 351 342 317 250 223 221 204 189 176 218 252 203 198 259 304 203 199 179 176 200 229 265 262 239 216 197 189 192 180 174 186 187 184 188 186 189 202 210 206 205 208 210 216 217 215 214 209 214 219 213 213 206 186 178 187 195 202 202 218 218 183 175 190 185 186 201 206 204 203 198 193 190 190 193 192 193
339 339 338 337 340 340 338 339 339 338 338 349 353 335 281 275 257 219 201 212 225 251 274 253 215 255 282 264 249 248 249 242 242 256 241 208 189 188 191 192 187 189 199 191 181 184 191 200 205 210 207 205 208 212 219 224 224 223 217 217 223 225 211 196 187 179 191 203 202 207 222 225 214 194 183 181 183 196 208 207 207 203 199 196 193 194 194 196
339 339 339 340 341 340 339 340 340 344 354 355 348 321 299 357 314 322 327 259 247 244 257 258 240 252 262 262 263 260 268 249 230 234 219 194 188 188 186 187 192 197 200 198 187 181 197 213 211 208 211 210 208 212 219 226 229 229 225 219 220 234 223 180 171 179 200 216 203 202 224 229 227 218 190 188 190 194 203 207 209 207 204 202 198 196 194 195
338 339 341 341 341 340 341 340 338 354 2 352 337 311 28 37 1 340 320 286 273 249 247 250 246 253 256 256 257 252 255 245 228 224 205 188 191 191 179 186 199 196 193 198 193 185 203 220 214 206 212 217 215 215 217 223 227 227 229 228 220 226 220 177 180 186 197 225 212 198 224 234 229 232 215 199 201 201 203 207 210 208 206 205 203 199 195 195
338 341 341 341 341 340 343 340 334 360 357 341 311 315 79 59 9 331 283 283 288 255 234 239 238 244 250 253 239 216 224 231 230 216 188 183 197 198 187 190 203 202 191 197 199 194 205 217 212 206 210 217 218 215 214 220 225 227 230 230 227 225 215 193 194 193 195 223 230 206 220 237 228 229 224 212 212 208 203 209 212 211 209 206 204 202 199 197
340 343 342 341 340 340 343 340 328 349 340 317 297 294 141 24 354 332 288 269 284 259 224 229 233 238 247 252 186 188 212 223 225 206 179 184 199 197 201 199 201 207 198 198 205 212 218 211 206 208 209 213 215 212 214 219 222 227 231 231 234 227 213 203 196 191 201 218 223 210 223 240 232 229 223 218 222 215 205 208 210 211 211 208 206 204 203 201
341 343 342 343 340 339 342 337 297 336 328 307 238 172 173 323 342 330 298 258 274 252 198 211 220 223 211 152 162 186 215 217 217 207 178 188 197 190 201 205 204 211 202 200 206 218 220 195 192 208 206 207 216 216 214 219 224 225 226 230 240 235 216 211 206 194 208 221 208 211 233 240 235 237 224 207 218 217 205 204 206 207 206 207 208 206 206 205
340 342 342 344 340 339 342 338 314 328 322 297 146 162 211 313 329 319 282 258 268 224 148 185 192 175 172 169 179 189 206 197 200 200 184 193 201 197 200 198 206 217 205 200 207 221 214 188 183 207 206 206 216 220 215 216 226 229 220 222 234 239 232 222 213 203 217 229 210 211 233 244 241 240 223 208 219 217 206 205 205 203 203 205 208 207 207 207
339 339 341 342 339 339 340 315 318 319 311 130 144 226 292 309 319 308 258 258 255 197 127 168 170 159 169 170 177 185 179 145 159 185 188 194 198 203 215 199 196 218 206 195 206 209 203 195 190 202 207 208 213 216 212 211 223 231 225 220 222 230 235 227 214 213 226 234 221 212 222 245 251 240 213 207 218 217 210 209 207 205 205 204 207 208 207 208
337 336 339 338 335 333 308 285 307 312 315 52 262 286 309 309 298 262 259 267 225 124 130 146 106 152 181 173 189 217 316 152 180 181 180 193 195 199 218 209 201 212 200 196 208 187 189 201 196 194 203 210 212 213 208 209 221 229 236 235 221 221 229 229 222 221 224 230 229 218 218 237 249 239 208 201 210 215 214 213 212 210 208 206 207 208 207 207
335 334 336 335 333 330 296 265 273 276 281 283 283 301 311 293 257 226 256 260 190 142 154 151 136 172 177 172 202 228 253 224 217 156 165 189 202 208 224 215 210 210 199 207 222 188 182 207 204 196 204 211 211 212 209 210 218 223 235 244 225 219 225 229 233 232 227 228 228 218 212 222 245 234 213 208 213 217 220 223 219 213 210 208 206 207 206 205
332 330 333 333 330 328 305 257 258 269 271 276 304 315 300 261 225 223 225 231 221 153 139 161 164 170 179 184 202 211 216 219 166 150 168 183 199 211 229 222 216 214 202 209 228 220 189 202 206 205 208 208 208 210 211 213 217 217 221 228 223 222 225 230 236 240 239 232 226 226 218 214 238 239 218 212 218 226 231 232 227 216 213 211 206 204 203 201
330 327 329 328 318 299 282 265 259 258 238 306 325 306 273 234 221 235 216 195 287 165 155 180 171 167 192 204 204 188 199 210 173 167 177 177 189 198 205 212 211 214 208 206 222 222 202 190 201 208 207 204 204 206 208 211 215 216 218 222 220 212 215 226 227 229 242 234 220 232 231 222 229 243 237 214 208 232 244 239 235 223 215 215 209 205 201 198
328 325 324 321 309 268 247 253 247 230 244 315 315 280 239 215 226 234 205 108 177 177 174 191 179 182 200 213 222 201 201 208 186 186 188 182 188 193 199 202 191 200 210 202 205 213 211 202 198 198 200 204 204 199 198 202 210 215 217 219 217 207 205 215 217 215 231 235 225 230 232 228 229 236 248 238 209 229 243 240 242 235 220 214 207 203 201 196
327 325 322 319 307 257 244 254 253 252 272 297 288 246 221 229 231 217 199 190 160 138 163 180 179 191 202 214 215 200 210 216 191 194 196 192 195 196 203 207 199 204 213 201 197 202 206 208 204 197 192 201 204 199 194 194 202 210 210 211 214 212 211 212 217 220 225 230 229 228 229 234 237 230 238 243 234 234 239 237 242 247 240 224 206 200 199 195
326 325 323 318 303 263 249 256 249 249 263 262 239 210 216 231 230 204 205 210 193 117 151 160 185 205 211 226 221 194 221 217 188 198 199 194 203 202 202 208 206 210 219 207 202 202 204 206 205 203 190 190 202 209 205 194 198 207 209 214 220 219 221 218 215 221 226 228 222 217 219 230 238 232 227 236 240 240 241 240 241 244 240 230 211 198 195 195
328 327 321 306 285 264 247 246 240 229 229 223 211 212 218 226 224 214 216 216 218 213 187 180 216 228 222 228 228 213 225 219 189 204 209 199 207 204 199 206 204 206 217 212 202 205 217 219 200 202 199 189 198 209 210 200 197 203 208 217 221 220 227 233 231 232 236 236 224 212 214 229 240 245 225 226 237 234 233 236 237 233 220 214 211 202 197 197
329 325 312 277 250 246 235 231 206 196 215 222 215 220 223 225 226 223 216 215 225 226 218 214 220 236 238 229 227 207 201 222 205 204 217 211 214 210 202 204 200 202 212 214 199 200 220 227 192 195 204 201 200 202 204 208 203 193 205 217 220 220 228 235 234 242 248 239 229 212 214 228 236 242 232 230 237 234 229 231 235 234 216 204 206 202 200 199
325 320 307 269 239 225 222 212 186 194 221 227 224 230 229 229 235 238 227 215 229 225 227 228 214 223 231 229 231 207 190 207 206 207 221 209 211 213 206 203 198 202 212 217 216 205 220 233 191 191 204 202 199 200 204 214 218 201 203 210 213 221 233 240 231 227 232 234 234 223 222 227 228 231 231 231 236 238 237 239 241 237 216 206 207 201 200 201
313 307 293 255 224 210 201 182 177 195 220 227 235 240 239 236 234 235 234 228 242 229 225 231 213 209 223 230 224 199 188 196 193 205 223 205 201 205 204 204 196 200 210 215 220 203 208 238 200 189 202 196 191 203 207 210 218 223 218 202 204 215 219 226 230 227 225 228 235 233 230 232 231 228 221 217 224 231 232 235 238 228 212 211 211 202 199 199
306 299 277 164 140 104 123 162 181 206 220 224 234 236 238 243 238 237 241 243 250 244 233 238 229 216 225 233 221 185 189 204 190 195 213 198 183 188 199 207 194 196 206 209 220 210 194 234 216 184 195 197 191 206 211 200 206 222 230 211 210 221 216 216 224 231 234 232 231 233 232 229 229 235 233 221 220 229 232 234 233 220 210 215 211 202 199 196
312 295 245 111 120 98 93 175 213 225 222 226 237 237 236 242 239 236 240 243 247 244 239 241 239 233 227 232 239 213 203 216 210 206 209 190 171 178 204 212 195 194 204 205 217 224 196 217 231 185 189 201 198 202 211 205 196 206 219 217 213 215 216 223 223 221 232 239 236 236 236 226 218 224 232 234 235 238 244 247 244 240 237 229 214 203 195 191
311 279 121 99 124 131 348 248 235 227 231 234 240 243 244 249 248 239 235 237 241 243 245 246 243 241 233 230 235 228 218 227 225 226 224 203 201 201 205 215 206 195 199 204 210 218 204 204 227 204 187 205 210 202 208 215 211 204 205 212 217 211 207 221 224 220 225 232 236 242 242 236 224 198 205 230 239 235 236 241 240 241 245 240 221 203 192 189
289 262 318 357 261 260 278 258 240 235 238 240 243 247 251 256 256 251 242 237 237 237 239 244 245 243 241 236 233 230 230 235 231 229 231 218 216 211 151 192 222 208 202 209 207 208 211 207 221 223 205 211 215 208 208 215 220 220 212 209 217 217 214 221 222 219 225 227 231 241 243 239 230 172 183 221 229 230 237 245 246 243 245 246 234 212 195 188
284 283 302 302 253 231 255 254 247 243 237 243 252 253 252 250 249 249 245 238 234 231 227 230 234 235 238 237 233 233 231 235 238 234 237 233 225 227 175 151 216 213 202 211 207 200 207 213 217 229 227 218 217 216 214 212 216 225 221 213 215 216 218 226 226 222 230 228 225 235 238 231 208 127 175 224 218 226 244 252 253 251 251 246 230 208 192 188
300 287 288 280 215 211 239 249 251 253 246 246 248 250 251 251 248 246 242 236 231 228 228 227 226 226 232 233 231 233 230 230 238 234 238 244 231 226 217 194 219 215 196 218 224 194 195 206 206 218 227 217 214 215 211 204 208 224 225 219 220 218 218 225 226 224 232 229 225 231 234 226 211 180 201 226 225 243 256 252 246 245 251 249 229 198 185 187
297 278 260 237 209 212 236 258 271 273 266 260 258 260 257 250 247 244 243 245 240 237 238 232 227 226 227 229 230 232 230 231 235 227 227 234 225 216 211 210 227 218 192 355 338 203 196 204 202 212 218 211 210 212 207 201 203 218 225 224 224 221 219 222 222 223 230 225 225 234 235 227 225 217 218 228 235 250 261 263 254 241 240 242 227 191 180 187
301 289 278 251 218 222 241 256 263 262 266 271 271 268 261 253 249 240 237 244 244 244 249 242 232 226 221 223 227 226 226 227 231 231 228 227 218 197 177 189 226 226 2 345 323 213 213 217 208 215 224 222 219 216 215 214 212 214 219 223 226 225 223 224 223 226 230 223 225 238 242 237 230 219 217 224 227 238 249 257 267 265 256 248 227 190 178 184
284 282 296 312 295 271 259 251 252 265 281 284 279 275 270 265 263 244 230 236 238 238 244 243 235 229 219 217 221 225 225 225 227 232 235 235 235 215 183 207 230 215 353 280 234 207 232 226 209 215 227 232 233 228 224 224 224 222 219 219 222 224 225 227 228 229 230 230 230 225 225 239 239 228 224 220 212 226 240 246 258 266 267 262 237 192 184 188
272 282 312 324 300 281 290 306 319 319 306 294 281 275 275 271 269 261 240 239 240 234 234 234 230 230 228 224 225 227 226 226 227 230 232 235 243 250 246 240 228 206 210 230 215 210 235 228 217 222 228 233 236 235 233 233 232 232 230 226 223 221 225 230 232 232 231 235 239 220 205 226 236 234 235 231 225 235 240 240 247 251 259 263 241 196 193 195
278 278 305 317 293 287 304 312 314 307 295 290 280 268 268 267 264 264 260 255 246 235 231 235 231 228 230 232 234 232 225 226 228 224 224 228 232 239 246 245 233 219 221 226 210 211 233 230 225 233 239 239 240 240 239 239 236 234 235 235 232 226 225 229 232 234 234 237 243 237 223 224 228 229 235 239 241 247 248 244 245 248 258 265 252 222 211 202
290 291 300 311 297 289 291 289 289 288 282 279 272 265 266 266 266 271 271 264 259 247 234 235 237 238 236 233 233 234 230 235 243 231 219 222 224 227 237 245 240 221 219 221 204 204 225 220 215 232 245 241 239 240 240 240 239 236 233 233 236 235 231 229 229 230 234 237 239 241 239 236 229 227 235 239 240 247 249 245 243 245 252 255 252 242 228 211
279 287 289 291 286 278 274 268 267 273 273 265 262 264 261 261 282 311 302 272 265 265 262 263 273 283 270 241 231 233 235 240 255 260 250 243 249 257 255 259 261 236 219 214 199 197 220 220 208 223 240 238 234 234 235 238 240 239 235 229 231 234 235 234 231 227 228 231 232 235 239 239 230 227 235 237 234 239 246 245 242 241 243 248 251 254 247 228
267 272 269 269 274 273 273 274 264 258 261 259 264 273 267 270 308 331 313 276 260 265 294 327 330 320 296 261 243 259 291 290 286 292 291 279 275 276 272 270 273 271 249 223 208 206 222 225 212 218 236 243 241 236 234 237 238 236 233 229 228 231 233 236 236 233 230 229 228 231 234 234 232 230 232 233 230 234 238 238 240 239 238 248 257 263 265 248